This is the latest recevied weather packets stored in our database for station/object W1REE. If no packets are shown the sender has not sent any weather packets the latest 10 day(s).
| Time | Temp. | Humidity | Pressure | Rain* | Wind** | Luminosity | Snow |
|---|---|---|---|---|---|---|---|
| 1777773223 | 13.33° C | 28% | 1021 hPa | 0 mm | - | 3 W/m² | - |
| 1777772617 | 13.89° C | 24% | 1020.8 hPa | 0 mm | - | 7 W/m² | - |
| 1777772314 | 13.89° C | 23% | 1020.7 hPa | 0 mm | - | 9 W/m² | - |
| 1777771406 | 15° C | 21% | 1020.8 hPa | 0 mm | - | 16 W/m² | - |
| 1777770496 | 16.11° C | 20% | 1020.6 hPa | 0 mm | - | 23 W/m² | - |
| 1777768678 | 17.78° C | 19% | 1020.8 hPa | 0 mm | - | 34 W/m² | - |
| 1777768375 | 17.78° C | 18% | 1020.8 hPa | 0 mm | - | 59 W/m² | - |
| 1777768072 | 17.78° C | 19% | 1020.7 hPa | 0 mm | - | 52 W/m² | - |
| 1777767465 | 18.33° C | 18% | 1020.8 hPa | 0 mm | - | 42 W/m² | - |
| 1777767161 | 18.33° C | 18% | 1021.1 hPa | 0 mm | - | 43 W/m² | - |
| 1777766859 | 18.33° C | 18% | 1021.1 hPa | 0 mm | - | 42 W/m² | - |
| 1777766253 | 19.44° C | 17% | 1021.1 hPa | 0 mm | - | 96 W/m² | - |
| 1777765951 | 19.44° C | 18% | 1020.8 hPa | 0 mm | - | 174 W/m² | - |
| 1777764737 | 20° C | 18% | 1021.2 hPa | 0 mm | - | 252 W/m² | - |
| 1777764433 | 20.56° C | 16% | 1021.2 hPa | 0 mm | - | 269 W/m² | - |
| 1777763827 | 18.89° C | 18% | 1021 hPa | 0 mm | - | 313 W/m² | - |
| 1777763525 | 18.89° C | 18% | 1021.2 hPa | 0 mm | - | 333 W/m² | - |
| 1777761707 | 20° C | 16% | 1021.2 hPa | 0 mm | - | 461 W/m² | - |
| 1777761405 | 20° C | 17% | 1021.3 hPa | 0 mm | - | 480 W/m² | - |
| 1777761103 | 20° C | 17% | 1021.3 hPa | 0 mm | - | 501 W/m² | - |
| 1777760800 | 20° C | 18% | 1021.3 hPa | 0 mm | - | 519 W/m² | - |
| 1777760497 | 20° C | 20% | 1021.4 hPa | 0 mm | - | 541 W/m² | - |
| 1777760192 | 19.44° C | 17% | 1021.6 hPa | 0 mm | - | 565 W/m² | - |
| 1777759889 | 18.89° C | 18% | 1021.7 hPa | 0 mm | - | 583 W/m² | - |
| 1777759586 | 19.44° C | 17% | 1021.6 hPa | 0 mm | - | 601 W/m² | - |
* Rain latest hour (hover to see other rain measurements)
** Current wind speed in m/s (hover to see current wind gust speed)